This is the latest recevied weather packets stored in our database for station/object SK4BW-10. If no packets are shown the sender has not sent any weather packets the latest 10 day(s).
| Time | Temp. | Humidity | Pressure | Rain* | Wind** | Luminosity | Snow |
|---|---|---|---|---|---|---|---|
| 1777885017 | 8.33° C | 72% | 1001.5 hPa | - | - | - | - |
| 1777884116 | 7.78° C | 76% | 1001.4 hPa | - | - | - | - |
| 1777883216 | 7.78° C | 80% | 1001.4 hPa | - | - | - | - |
| 1777882315 | 7.78° C | 70% | 1001.5 hPa | - | - | - | - |
| 1777881414 | 7.22° C | 73% | 1001.7 hPa | - | - | - | - |
| 1777880513 | 6.11° C | 92% | 1001.8 hPa | - | - | - | - |
| 1777879612 | 5.56° C | 95% | 1001.9 hPa | - | - | - | - |
| 1777878711 | 5° C | 99% | 1002 hPa | - | - | - | - |
| 1777877811 | 5° C | 97% | 1002.2 hPa | - | - | - | - |
| 1777876910 | 5° C | 97% | 1002.4 hPa | - | - | - | - |
| 1777876008 | 5° C | 97% | 1002.3 hPa | - | - | - | - |
| 1777875108 | 4.44° C | 96% | 1002.5 hPa | - | - | - | - |
| 1777874207 | 4.44° C | 95% | 1002.6 hPa | - | - | - | - |
| 1777873305 | 5° C | 92% | 1002.7 hPa | - | - | - | - |
| 1777872404 | 3.89° C | 99% | 1002.7 hPa | - | - | - | - |
| 1777871503 | 3.89° C | 97% | 1002.7 hPa | - | - | - | - |
| 1777870602 | 3.89° C | 100% | 1002.8 hPa | - | - | - | - |
| 1777869701 | 3.89° C | 100% | 1003 hPa | - | - | - | - |
| 1777868800 | 3.89° C | 100% | 1003.1 hPa | - | - | - | - |
| 1777867899 | 3.33° C | 100% | 1003.4 hPa | - | - | - | - |
| 1777866998 | 3.33° C | 100% | 1003.4 hPa | - | - | - | - |
| 1777866097 | 3.33° C | 100% | 1003.5 hPa | - | - | - | - |
| 1777865196 | 3.33° C | 100% | 1003.6 hPa | - | - | - | - |
| 1777864295 | 3.33° C | 100% | 1003.6 hPa | - | - | - | - |
| 1777863394 | 3.33° C | 100% | 1003.9 hPa | - | - | - | - |
* Rain since midnight (hover to see other rain measurements)
** Current wind speed in m/s (hover to see current wind gust speed)